Weather reports worldwide

Advertisment
Cabo Busto, Spain (8010): temperature & dewpoint: 17.05.2019 14:00:00 - 23.05.2019 14:00:00 (CEST)Cabo Busto, Spain (8010): wind speed & gusts: 17.05.2019 14:00:00 - 23.05.2019 14:00:00 (CEST)Cabo Busto, Spain (8010): wind direction: 17.05.2019 14:00:00 - 23.05.2019 14:00:00 (CEST)Cabo Busto, Spain (8010): reduced air pressure: 17.05.2019 14:00:00 - 23.05.2019 14:00:00 (CEST)Cabo Busto, Spain (8010): visibility: 17.05.2019 14:00:00 - 23.05.2019 14:00:00 (CEST)Cabo Busto, Spain (8010): sunshine duration: 17.05.2019 14:00:00 - 23.05.2019 14:00:00 (CEST)Cabo Busto, Spain (8010): precipitation: 17.05.2019 14:00:00 - 23.05.2019 14:00:00 (CEST)
Date & Time tt [°C] td [°C] ff [km/h] ff [kn] fx [km/h] fx [kn] dd ppp [hPa] vv [km] sd [min] rr [mm]
23.05.2019 14:00:00 - - - - - - - - - - -
23.05.2019 13:00:00 19,4 12,6 - - - - - 1019,0 20 60 0,0
23.05.2019 12:00:00 19,4 12,2 - - - - - 1019,2 20 46 0,0
23.05.2019 11:00:00 18,2 11,2 - - - - - 1019,1 20 57 0,0
23.05.2019 10:00:00 16,1 11,7 - - - - - 1018,7 20 51 0,0
23.05.2019 09:00:00 13,5 10,5 - - - - - 1018,5 20 3 0,0
23.05.2019 08:00:00 12,2 9,6 - - - - - 1018,1 20 0 -
23.05.2019 07:00:00 11,8 9,3 - - - - - 1017,9 20 0 0,0
23.05.2019 06:00:00 11,8 9,0 - - - - - 1017,6 20 0 0,0
23.05.2019 05:00:00 14,3 10,9 - - - - - 1017,5 20 0 0,0
23.05.2019 04:00:00 14,3 10,2 - - - - - 1017,2 20 0 0,0
23.05.2019 03:00:00 14,5 9,7 - - - - - 1017,3 20 0 0,0
23.05.2019 02:00:00 14,6 11,3 - - - - - 1017,6 20 0 -
23.05.2019 01:00:00 14,4 12,2 - - - - - 1017,6 9 0 0,0
23.05.2019 00:00:00 14,9 12,2 - - - - - 1017,8 14 0 0,0
22.05.2019 23:00:00 15,6 12,3 - - - - - 1017,6 20 0 0,0
22.05.2019 22:00:00 15,9 12,6 - - - - - 1017,1 20 34 0,0
22.05.2019 21:00:00 16,6 12,7 5 3 12 6 E 1016,6 20 60 0,0
22.05.2019 20:00:00 17,2 13,4 6 4 16 8 E 1016,6 20 60 -
22.05.2019 19:00:00 16,5 13,1 13 7 19 10 E 1016,6 20 60 0,0
22.05.2019 18:00:00 16,8 13,2 13 7 23 12 E 1016,9 20 60 0,0
22.05.2019 17:00:00 16,8 13,0 16 8 22 12 E 1016,9 20 60 0,0
22.05.2019 16:00:00 16,4 12,7 12 6 25 13 ENE 1017,0 20 55 0,0
22.05.2019 15:00:00 16,1 12,4 12 7 26 14 ENE 1017,4 19 60 0,0
22.05.2019 14:00:00 15,9 12,2 15 8 26 14 ENE 1017,3 20 60 -
22.05.2019 13:00:00 16,1 12,1 12 6 20 11 ENE 1017,6 10 60 0,0
22.05.2019 12:00:00 15,9 12,2 6 3 14 8 WNW 1017,8 17 60 0,0
22.05.2019 11:00:00 15,1 11,4 8 4 - - W 1017,7 11 60 0,0
22.05.2019 10:00:00 14,8 11,9 - - - - - 1017,7 7 60 0,0
22.05.2019 09:00:00 13,4 11,1 - - - - - 1017,5 20 60 0,0
22.05.2019 08:00:00 10,6 8,9 - - - - - 1017,6 13 13 -
22.05.2019 07:00:00 9,7 8,0 - - - - - 1017,7 10 0 0,0
22.05.2019 06:00:00 10,2 8,3 - - - - - 1017,9 11 0 0,0
22.05.2019 05:00:00 10,5 8,8 - - - - - 1018,0 12 0 0,0
22.05.2019 04:00:00 10,3 8,4 - - - - - 1018,5 11 0 0,0
22.05.2019 03:00:00 10,3 8,3 - - - - - 1018,7 7 0 0,0
22.05.2019 02:00:00 11,3 9,2 - - - - - 1018,8 15 0 -
22.05.2019 01:00:00 12,3 9,8 - - - - - 1018,8 17 0 0,0
22.05.2019 00:00:00 13,4 10,9 - - - - - 1018,7 18 0 0,0
21.05.2019 23:00:00 13,7 11,2 19 10 - - ENE 1018,7 17 0 0,0
21.05.2019 22:00:00 13,9 11,2 - - - - - 1018,3 20 32 0,0
21.05.2019 21:00:00 14,3 11,2 - - - - - 1018,0 20 60 0,0
21.05.2019 20:00:00 14,7 11,4 - - - - - 1017,6 20 60 -
21.05.2019 19:00:00 14,9 11,3 - - - - - 1017,6 20 60 0,0
21.05.2019 18:00:00 15,2 11,3 - - - - - 1017,6 20 60 0,0
21.05.2019 17:00:00 15,6 11,3 - - - - - 1017,6 20 60 0,0
21.05.2019 16:00:00 15,7 11,7 - - - - - 1017,8 20 60 0,0
21.05.2019 15:00:00 15,7 11,7 - - - - - 1017,8 19 60 0,0
21.05.2019 14:00:00 15,5 11,3 - - - - - 1017,8 20 60 -
21.05.2019 13:00:00 15,8 11,3 - - - - - 1018,0 20 60 0,0
21.05.2019 12:00:00 15,6 11,3 - - - - - 1017,8 17 60 0,0
21.05.2019 11:00:00 14,7 10,9 - - - - - 1017,7 20 60 0,0
21.05.2019 10:00:00 14,2 10,6 - - - - - 1017,5 15 60 0,0
21.05.2019 09:00:00 11,5 9,4 8 4 17 9 SSE 1017,4 20 26 0,0
21.05.2019 08:00:00 9,9 7,8 13 7 16 9 SSE 1017,1 19 2 -
21.05.2019 07:00:00 9,5 7,4 11 6 15 8 SSE 1016,8 16 0 0,0
21.05.2019 06:00:00 10,0 7,7 9 5 12 6 S 1016,5 14 0 0,0
21.05.2019 05:00:00 - - - - - - - - - - -
21.05.2019 04:00:00 10,3 8,1 10 6 14 8 SSE 1015,9 20 0 0,0
21.05.2019 03:00:00 10,5 8,3 10 5 15 8 SSE 1016,0 20 0 0,0
21.05.2019 02:00:00 11,2 8,7 9 5 19 10 SE 1016,3 20 0 -
21.05.2019 01:00:00 11,2 8,8 11 6 14 8 SSE 1016,2 20 0 0,0
21.05.2019 00:00:00 12,1 8,5 6 3 22 12 ESE 1016,4 20 0 0,0
20.05.2019 23:00:00 13,0 9,3 12 6 30 16 E 1016,2 20 0 0,0
20.05.2019 22:00:00 13,4 9,8 18 10 36 19 ENE 1015,5 20 0 0,0
20.05.2019 21:00:00 13,6 9,7 19 11 37 20 NE 1015,2 20 18 0,0
20.05.2019 20:00:00 15,6 10,2 9 5 36 19 N 1014,8 20 60 -
20.05.2019 19:00:00 15,1 9,0 18 10 36 20 NE 1014,8 20 60 0,0
20.05.2019 18:00:00 14,9 9,3 18 10 35 19 NE 1014,8 20 60 0,0
20.05.2019 17:00:00 15,1 9,0 15 8 27 15 NE 1015,1 20 60 0,0
20.05.2019 16:00:00 16,0 9,9 10 6 24 13 NNE 1015,4 20 60 0,0
20.05.2019 15:00:00 16,0 9,7 8 4 23 12 NNE 1015,4 16 60 0,0
20.05.2019 14:00:00 14,5 9,3 11 6 20 11 NE 1015,7 20 34 -
20.05.2019 13:00:00 14,7 9,9 5 3 - - NE 1015,8 20 40 0,0
20.05.2019 12:00:00 15,0 9,3 - - - - - 1015,8 20 60 0,0
20.05.2019 11:00:00 14,8 9,4 4 2 9 5 NW 1015,9 20 60 0,0
20.05.2019 10:00:00 13,3 9,3 6 3 17 9 SE 1015,8 20 60 0,0
20.05.2019 09:00:00 9,9 7,3 15 8 23 12 SSE 1015,6 20 23 0,0
20.05.2019 08:00:00 8,0 5,8 18 10 23 13 SSE 1015,2 20 10 -
20.05.2019 07:00:00 7,6 5,6 18 10 23 12 SSE 1014,8 20 0 0,0
20.05.2019 06:00:00 8,0 5,8 18 10 23 13 SSE 1014,6 20 0 0,0
20.05.2019 05:00:00 8,7 6,5 16 9 22 12 SSE 1015,0 20 0 0,0
20.05.2019 04:00:00 9,1 6,8 15 8 22 12 SSE 1015,3 20 0 0,0
20.05.2019 03:00:00 9,6 7,1 13 7 17 9 SSE 1015,8 20 0 0,0
20.05.2019 02:00:00 10,5 8,1 14 7 18 10 SSE 1016,2 20 0 -
20.05.2019 01:00:00 10,8 8,4 11 6 14 8 SSE 1016,5 20 0 0,0
20.05.2019 00:00:00 10,9 8,1 10 6 12 7 SSE 1016,7 20 0 0,0
19.05.2019 23:00:00 11,7 8,1 3 2 8 4 NNW 1016,6 20 0 0,0
19.05.2019 22:00:00 12,8 8,7 8 4 13 7 WNW 1016,2 20 17 0,0
19.05.2019 21:00:00 13,7 9,3 8 4 18 10 WNW 1016,1 20 43 0,0
19.05.2019 20:00:00 15,6 10,4 8 5 13 7 WNW 1015,7 20 60 -
19.05.2019 19:00:00 14,8 10,2 9 5 24 13 NW 1015,6 20 60 0,0
19.05.2019 18:00:00 15,2 10,4 16 9 24 13 W 1015,7 20 60 0,0
19.05.2019 17:00:00 15,3 10,3 19 10 25 13 W 1015,7 20 60 0,0
19.05.2019 16:00:00 18,7 12,4 16 9 25 13 W 1015,9 20 38 0,0
19.05.2019 15:00:00 17,1 10,9 14 8 30 16 W 1016,2 20 23 0,0
19.05.2019 14:00:00 16,8 10,2 18 10 36 19 W 1016,1 20 60 -
19.05.2019 13:00:00 16,3 9,4 19 11 36 19 W 1015,9 20 60 0,0
19.05.2019 12:00:00 14,8 7,8 19 10 36 19 W 1015,6 20 60 0,0
19.05.2019 11:00:00 14,4 7,7 15 8 38 20 WNW 1015,4 20 60 0,0
19.05.2019 10:00:00 - - - - - - - - - - -
19.05.2019 09:00:00 11,9 6,2 28 15 37 20 WSW 1014,2 20 21 0,0
19.05.2019 08:00:00 11,1 6,4 18 10 27 15 WSW 1014,9 19 0 -
19.05.2019 07:00:00 10,9 6,7 13 7 24 13 SW 1014,7 20 0 0,0
19.05.2019 06:00:00 11,1 7,3 16 9 33 18 WSW 1014,8 20 0 0,0
19.05.2019 05:00:00 11,1 7,3 19 10 34 18 WSW 1014,7 19 0 0,0
19.05.2019 04:00:00 11,0 7,3 20 11 37 20 WSW 1014,7 16 0 0,0
19.05.2019 03:00:00 10,8 7,3 20 11 42 23 WSW 1014,8 19 0 0,0
19.05.2019 02:00:00 11,3 8,4 27 15 43 23 W 1015,2 20 0 -
19.05.2019 01:00:00 - - - - - - - - - - -
19.05.2019 00:00:00 10,6 8,1 13 7 34 18 SW 1015,5 9 0 3,0
18.05.2019 23:00:00 11,0 8,4 29 15 41 22 W 1015,4 17 0 1,0
18.05.2019 22:00:00 11,1 8,1 29 16 52 28 WSW 1014,9 20 0 0,8
18.05.2019 21:00:00 11,1 8,7 26 14 52 28 W 1014,7 12 0 2,0
18.05.2019 20:00:00 11,5 8,9 31 17 54 29 W 1014,2 17 0 -
18.05.2019 19:00:00 12,7 9,3 28 15 51 28 WNW 1014,0 13 29 0,0
18.05.2019 18:00:00 14,4 10,0 29 16 55 30 W 1013,2 20 60 0,0
18.05.2019 17:00:00 12,5 9,3 34 18 47 25 W 1013,4 20 9 0,2
18.05.2019 16:00:00 12,4 9,4 32 17 45 24 W 1013,7 17 0 0,0
18.05.2019 15:00:00 12,2 9,4 33 18 61 33 W 1013,6 19 0 0,8
18.05.2019 14:00:00 12,1 9,2 35 19 64 34 WNW 1012,9 13 0 -
18.05.2019 13:00:00 10,8 8,0 41 22 54 29 W 1012,9 20 0 1,2
18.05.2019 12:00:00 11,5 8,0 31 17 76 41 W 1012,8 9 0 1,2
18.05.2019 11:00:00 12,5 7,1 40 21 68 37 W 1011,9 18 20 0,0
18.05.2019 10:00:00 12,3 7,1 48 26 69 37 W 1011,7 20 26 0,0
18.05.2019 09:00:00 11,1 7,0 41 22 64 35 W 1011,8 11 0 0,0
18.05.2019 08:00:00 10,7 7,0 41 22 56 30 W 1011,6 20 0 -
18.05.2019 07:00:00 10,5 7,1 43 23 60 33 W 1011,2 20 0 0,2
18.05.2019 06:00:00 9,9 7,1 35 19 46 25 WSW 1011,8 20 0 1,0
18.05.2019 05:00:00 10,2 7,1 39 21 52 28 W 1011,9 20 0 0,2
18.05.2019 04:00:00 10,2 6,1 31 17 54 29 WSW 1012,1 20 0 0,2
18.05.2019 03:00:00 9,9 6,5 35 19 50 27 WSW 1012,8 20 0 0,0
18.05.2019 02:00:00 10,0 6,8 27 15 54 29 WSW 1013,1 20 0 -
18.05.2019 01:00:00 10,6 6,5 37 20 52 28 W 1013,3 20 0 0,0
18.05.2019 00:00:00 10,2 7,3 30 16 48 26 W 1013,8 20 0 1,8
17.05.2019 23:00:00 10,1 6,7 34 19 58 31 W 1014,2 12 0 4,8
17.05.2019 22:00:00 11,8 7,7 29 16 64 35 WNW 1013,5 20 16 0,2
17.05.2019 21:00:00 12,3 7,6 30 16 53 29 W 1013,3 20 17 0,0
17.05.2019 20:00:00 13,4 7,8 28 15 59 32 W 1013,3 15 53 -
17.05.2019 19:00:00 13,6 8,7 28 15 59 32 W 1013,4 20 20 0,0
17.05.2019 18:00:00 13,4 8,9 31 17 56 30 W 1013,1 20 25 0,0
17.05.2019 17:00:00 15,3 10,3 30 16 58 31 W 1013,3 16 39 0,0
17.05.2019 16:00:00 14,8 9,8 31 17 51 28 W 1013,7 14 57 0,0
17.05.2019 15:00:00 14,3 10,3 29 16 65 35 W 1013,8 15 36 0,0
17.05.2019 14:00:00 12,2 9,6 44 24 70 38 W 1013,4 16 3 -

tt = temperature
td = dewpoint
ff = wind speed
fx = gusts
dd = wind direction
ppp = reduced air pressure
vv = visibility
sd = sunshine duration
rr = precipitation

Next stations